Miscellaneous Local Product
Issued by NWS Hastings, NE

Home | Current Version | Previous Version | Graphics & Text | Print | Product List | Glossary On
Versions: 1 2 3 4 5 6 7 8 9 10 11 12 13 14 15 16 17 18 19 20 21 22 23 24 25 26 27 28 29 30 31 32 33 34 35 36 37 38 39 40 41 42 43 44 45 46 47 48 49 50
000
AXUS43 KGID 042102
MISGRI

GID CWA HOURLY WEATHER ROUNDUP
NATIONAL WEATHER SERVICE HASTINGS NE
400 PM CDT SAT JUL 04 2015

NOTE: "FAIR" INDICATES FEW OR NO CLOUDS BELOW 12,000 FEET WITH NO
SIGNIFICANT WEATHER AND/OR OBSTRUCTIONS TO VISIBILITY.

...SOUTH CENTRAL NEBRASKA...

CITY           SKY/WX    TMP DP  RH WIND       PRES   REMARKS
GRAND ISLAND   MOSUNNY   84  66  54 S16G22    29.95F
HASTINGS       MOSUNNY   85  65  51 S13G20    29.95F
KEARNEY        MOSUNNY   86  66  51 SE15G23   29.94S
ORD            MOSUNNY   86  65  49 S15G23    29.91F
YORK           SUNNY     81  66  61 S14       29.96F
AURORA         MOSUNNY   82  64  55 S9G17     29.96S
LEXINGTON      SUNNY     89  65  44 SE16G25   29.92F HX  90
HOLDREGE       SUNNY     85  61  44 S15G22    29.94F
HEBRON         SUNNY     83  61  47 SE10      29.96F

...NEBRASKA PANHANDLE...

CITY           SKY/WX    TMP DP  RH WIND       PRES   REMARKS
CHADRON        SUNNY     93  63  36 SE7       29.82F HX  94
ALLIANCE       SUNNY     90  62  39 S13       29.88F HX  90
SCOTTSBLUFF    MOSUNNY   95  52  23 SE10G16   29.87F HX  92
SIDNEY         MOSUNNY   91  58  32 S12G18    29.93F HX  90

...WESTERN AND NORTH CENTRAL NEBRASKA...

CITY           SKY/WX    TMP DP  RH WIND       PRES   REMARKS
VALENTINE      SUNNY     91  64  40 S18G25    29.85F HX  92
AINSWORTH      MOSUNNY   88  65  46 S20       29.88F HX  90
ONEILL         MOSUNNY   85  65  50 S15G22    29.91F
BROKEN BOW     MOSUNNY   86  66  51 S15G26    29.92F
IMPERIAL       SUNNY     95  57  27 S13G23    29.88F HX  94
NORTH PLATTE   SUNNY     90  64  42 S12G23    29.89F HX  91
MCCOOK         MOSUNNY   95  58  28 SE16G24   29.88F HX  94

...EASTERN NEBRASKA...

CITY           SKY/WX    TMP DP  RH WIND       PRES   REMARKS
NORFOLK        MOSUNNY   82  65  56 S17G25    29.94F
SO SIOUX CITY  PTSUNNY   82  65  56 S14       29.93F
TEKAMAH        PTSUNNY   83  63  50 S13       29.95F
COLUMBUS       MOSUNNY   81  64  57 S10G17    29.97F
ALBION         MOSUNNY   82  63  52 S13G18    29.95S
OMAHA EPPLEY   PTSUNNY   82  60  47 S15       29.96F
OFFUTT AFB     PTSUNNY   79  61  54 SE10      29.96F
MILLARD        PTSUNNY   80  63  55 S10       29.96S
LINCOLN        PTSUNNY   82  64  54 S10       29.96F
NEBRASKA CITY  PTSUNNY   81  55  41 S12       29.98F
BEATRICE       PTSUNNY   82  64  53 S10G20    29.97S
FALLS CITY     PTSUNNY   82  62  50 SE10      29.97F

...NORTHERN KANSAS...

CITY           SKY/WX    TMP DP  RH WIND       PRES   REMARKS
GOODLAND       SUNNY     92  55  28 S20G30    29.92F HX  90
NORTON         CLEAR     93  55  27 SE16G24   29.90F HX  91
PHILLIPSBURG   MOSUNNY   93  63  36 SE14G22   29.91F HX  94
SMITH CENTER   SUNNY     90  61  37 S17       29.93F
HAYS           MOSUNNY   90  64  43 S18G25    29.93F HX  91
RUSSELL        SUNNY     88  65  46 S15       29.92F HX  90
CONCORDIA      SUNNY     85  61  44 SE14G20   29.95F
SALINA         MOSUNNY   91  61  36 S7G20     29.93F HX  91
TOPEKA         MOSUNNY   83  63  50 S8        29.97F



USA.gov is the U.S. government's official web portal to all federal, state and local government web resources and services.